Weather reports worldwide

Advertisment
Oschatz, Germany (10480): temperature & dewpoint: 09.09.2019 10:00:00 - 15.09.2019 10:00:00 (CEST)Oschatz, Germany (10480): temperature 5cm & temperature -5cm: 09.09.2019 10:00:00 - 15.09.2019 10:00:00 (CEST)Oschatz, Germany (10480): temperature -20cm & temperature -100cm: 09.09.2019 10:00:00 - 15.09.2019 10:00:00 (CEST)Oschatz, Germany (10480): wind speed & gusts: 09.09.2019 10:00:00 - 15.09.2019 10:00:00 (CEST)Oschatz, Germany (10480): wind direction: 09.09.2019 10:00:00 - 15.09.2019 10:00:00 (CEST)Oschatz, Germany (10480): reduced air pressure: 09.09.2019 10:00:00 - 15.09.2019 10:00:00 (CEST)Oschatz, Germany (10480): visibility: 09.09.2019 10:00:00 - 15.09.2019 10:00:00 (CEST)Oschatz, Germany (10480): sunshine duration: 09.09.2019 10:00:00 - 15.09.2019 10:00:00 (CEST)Oschatz, Germany (10480): precipitation: 09.09.2019 10:00:00 - 15.09.2019 10:00:00 (CEST)
Date & Time tt [°C] td [°C] tt 5cm [°C] tt -5cm [°C] tt -20cm [°C] tt -100cm [°C] ff [km/h] ff [kn] fx [km/h] fx [kn] dd ppp [hPa] vv [km] sd [min] rr [mm]
15.09.2019 10:00:00 17,6 12,0 17,7 16,4 14,3 18,6 19 11 29 16 SW 1023,1 44 60 0,0
15.09.2019 09:00:00 15,1 10,9 14,5 13,7 14,2 18,6 19 10 29 16 SW 1023,6 56 60 0,0
15.09.2019 08:00:00 12,6 9,6 11,4 10,8 14,3 18,6 17 9 27 15 SW 1024,1 47 31 0,0
15.09.2019 07:00:00 7,6 6,9 6,7 9,8 14,6 18,6 6 3 8 4 SSW 1024,8 26 0 0,0
15.09.2019 06:00:00 8,4 7,4 6,7 10,0 14,9 18,6 4 2 8 4 SSE 1025,3 31 0 0,0
15.09.2019 05:00:00 8,3 7,0 6,8 10,3 15,2 18,6 5 3 8 5 S 1025,9 31 0 0,0
15.09.2019 04:00:00 7,9 6,7 6,6 10,4 15,6 18,6 6 3 10 5 SSW 1026,7 35 0 0,0
15.09.2019 03:00:00 8,0 6,7 6,5 10,7 16,0 18,6 4 2 9 5 S 1027,4 41 0 0,0
15.09.2019 02:00:00 7,5 6,6 6,2 11,0 16,4 18,6 5 3 8 4 SSW 1028,1 44 0 0,0
15.09.2019 01:00:00 7,7 6,5 6,3 11,5 16,9 18,6 4 2 8 4 W 1029,1 39 0 0,0
15.09.2019 00:00:00 8,5 7,2 7,3 12,2 17,4 18,6 6 3 7 4 SSW 1029,7 42 0 0,0
14.09.2019 23:00:00 9,2 7,1 7,6 12,9 18,0 18,6 4 2 8 4 SW 1030,2 49 0 0,0
14.09.2019 22:00:00 10,3 8,0 8,2 13,8 18,5 18,6 2 1 5 3 NW 1030,9 49 0 0,0
14.09.2019 21:00:00 11,4 8,0 9,5 14,9 19,1 18,7 3 2 6 3 WSW 1030,8 47 0 0,0
14.09.2019 20:00:00 14,0 8,1 11,4 16,5 19,5 18,7 3 2 5 3 W 1030,7 58 0 0,0
14.09.2019 19:00:00 17,5 7,3 14,8 18,5 19,8 18,7 3 1 10 5 SSE 1030,3 51 42 0,0
14.09.2019 18:00:00 18,7 4,9 19,0 20,9 19,8 18,7 4 2 10 5 NW 1030,8 71 60 0,0
14.09.2019 17:00:00 19,1 5,9 20,9 22,3 19,5 18,7 6 3 16 9 WSW 1031,1 65 60 0,0
14.09.2019 16:00:00 19,5 6,8 21,7 22,4 19,2 18,7 5 3 13 7 S 1032,0 49 38 0,0
14.09.2019 15:00:00 19,0 6,8 22,5 23,5 18,6 18,7 5 3 18 10 ESE 1032,8 41 56 0,0
14.09.2019 14:00:00 18,2 5,4 20,7 22,7 18,1 18,7 5 3 18 10 S 1033,6 60 32 0,0
14.09.2019 13:00:00 18,1 7,6 21,5 23,2 17,3 18,7 4 2 12 7 S 1033,9 52 57 0,0
14.09.2019 12:00:00 16,6 7,6 19,6 21,9 16,6 18,7 7 4 15 8 NNE 1034,7 64 60 0,0
14.09.2019 11:00:00 16,2 9,0 18,1 19,7 16,0 18,7 6 3 15 8 E 1034,6 37 60 0,0
14.09.2019 10:00:00 14,3 8,5 15,3 17,2 15,6 18,7 6 4 12 7 ENE 1034,9 36 60 0,0
14.09.2019 09:00:00 13,2 7,7 12,9 14,4 15,6 18,7 4 2 10 5 NE 1035,1 39 41 0,0
14.09.2019 08:00:00 11,0 8,2 10,2 12,2 15,8 18,7 6 3 10 5 N 1035,1 40 24 0,0
14.09.2019 07:00:00 9,4 8,2 8,3 11,5 16,2 18,7 9 5 12 6 NNW 1034,8 34 0 0,0
14.09.2019 06:00:00 10,7 8,7 8,9 12,4 16,6 18,7 6 4 9 5 N 1034,3 48 0 0,0
14.09.2019 05:00:00 11,5 10,2 9,7 13,3 16,9 18,7 5 3 13 7 NW 1034,2 42 0 0,0
14.09.2019 04:00:00 11,9 10,6 11,1 13,7 17,2 18,7 8 4 10 6 NNW 1034,2 44 0 0,0
14.09.2019 03:00:00 13,3 10,3 11,0 14,5 17,4 18,7 4 2 8 4 N 1034,0 55 0 0,0
14.09.2019 02:00:00 14,0 11,2 13,6 15,1 17,6 18,7 7 4 9 5 NNW 1033,8 67 0 0,0
14.09.2019 01:00:00 14,3 11,5 13,9 15,2 17,9 18,7 8 4 11 6 NNW 1034,0 62 0 0,0
14.09.2019 00:00:00 14,2 11,3 12,9 15,3 18,2 18,7 8 4 11 6 NW 1033,5 75 0 0,0
13.09.2019 23:00:00 15,6 12,5 15,0 16,2 18,5 18,7 8 5 11 6 NNW 1032,9 75 0 0,0
13.09.2019 22:00:00 15,7 12,1 13,9 16,1 18,8 18,8 3 2 14 7 N 1032,4 63 0 0,0
13.09.2019 21:00:00 18,1 11,9 16,8 17,2 19,1 18,8 10 5 20 11 NNE 1031,7 75 0 0,0
13.09.2019 20:00:00 18,8 13,5 17,9 18,2 19,3 18,8 9 5 16 9 WNW 1030,8 60 0 0,0
13.09.2019 19:00:00 19,4 14,2 18,8 18,9 19,5 18,8 11 6 32 18 NNW 1030,2 68 6 0,0
13.09.2019 18:00:00 20,8 13,7 20,5 20,4 19,5 18,8 25 13 36 19 NW 1029,7 68 16 0,0
13.09.2019 17:00:00 22,0 14,5 22,1 21,7 19,3 18,8 16 9 29 16 W 1029,2 71 25 0,0
13.09.2019 16:00:00 21,6 14,9 22,0 21,4 19,1 18,8 16 9 27 14 W 1029,3 62 1 0,0
13.09.2019 15:00:00 21,7 15,2 22,6 22,3 18,8 18,8 19 11 32 17 WSW 1029,3 50 2 0,0
13.09.2019 14:00:00 20,8 15,1 21,3 21,5 18,5 18,8 19 10 39 21 W 1029,4 56 0 0,0
13.09.2019 13:00:00 21,2 14,9 21,9 22,5 17,9 18,8 26 14 39 21 W 1028,9 71 19 0,0
13.09.2019 12:00:00 21,3 14,4 22,4 21,8 17,3 18,8 27 15 46 25 W 1028,7 53 30 0,0
13.09.2019 11:00:00 21,2 14,9 22,7 20,5 16,7 18,8 23 12 42 23 WSW 1028,7 75 19 0,0
13.09.2019 10:00:00 18,9 14,7 19,3 17,3 16,5 18,8 15 8 22 12 SW 1028,8 64 3 0,0
13.09.2019 09:00:00 17,3 14,0 17,1 15,9 16,4 18,8 13 7 21 11 WSW 1028,9 60 0 0,0
13.09.2019 08:00:00 16,5 13,7 16,2 15,2 16,4 18,8 13 7 22 12 SW 1028,5 46 4 0,0
13.09.2019 07:00:00 16,1 13,6 15,5 14,6 16,5 18,8 15 8 22 12 WSW 1028,6 63 0 0,0
13.09.2019 06:00:00 15,2 13,3 14,0 14,0 16,6 18,8 16 8 26 14 WSW 1028,3 66 0 0,0
13.09.2019 05:00:00 16,0 13,5 15,2 14,6 16,8 18,8 18 10 25 14 WSW 1028,3 75 0 0,0
13.09.2019 04:00:00 15,3 13,2 14,1 14,2 17,0 18,8 14 8 21 12 WSW 1028,3 75 0 0,0
13.09.2019 03:00:00 15,6 13,1 14,4 14,3 17,3 18,8 14 8 20 11 SW 1028,3 69 0 0,0
13.09.2019 02:00:00 15,5 13,1 14,4 14,6 17,5 18,9 11 6 16 9 SW 1028,5 74 0 0,0
13.09.2019 01:00:00 15,5 13,0 14,5 14,8 17,8 18,9 13 7 18 10 SW 1028,5 69 0 0,0
13.09.2019 00:00:00 15,0 12,8 13,5 15,0 18,2 18,9 13 7 18 10 WSW 1028,6 57 0 0,0
12.09.2019 23:00:00 14,6 12,8 13,3 15,5 18,6 18,9 9 5 14 8 SW 1028,6 55 0 0,0
12.09.2019 22:00:00 15,8 13,2 14,0 16,3 19,0 18,9 10 6 14 8 SW 1028,5 63 0 0,0
12.09.2019 21:00:00 16,4 14,0 14,5 17,2 19,3 18,9 7 4 10 5 SSW 1028,3 52 0 0,0
12.09.2019 20:00:00 18,2 14,6 15,6 18,4 19,6 18,9 5 3 8 4 S 1028,0 70 0 0,0
12.09.2019 19:00:00 20,9 13,9 19,4 19,9 19,7 18,9 6 3 17 9 SW 1027,9 72 60 0,0
12.09.2019 18:00:00 22,3 13,7 22,7 21,8 19,5 18,9 8 5 22 12 SW 1027,7 75 40 0,0
12.09.2019 17:00:00 22,3 13,3 24,4 23,1 19,2 18,9 16 9 28 15 W 1027,9 75 29 0,0
12.09.2019 16:00:00 21,6 13,6 22,7 23,3 18,6 19,0 12 7 29 16 WSW 1028,0 69 26 0,0
12.09.2019 15:00:00 20,8 14,4 21,7 23,5 18,0 19,0 16 9 33 18 SW 1028,4 67 46 0,0
12.09.2019 14:00:00 19,3 14,2 20,6 20,9 17,6 19,0 18 10 31 17 WSW 1028,8 61 0 0,0
12.09.2019 13:00:00 18,8 13,6 19,4 20,3 17,1 19,0 16 9 29 16 WSW 1028,7 62 0 0,0
12.09.2019 12:00:00 18,3 13,3 19,1 19,6 16,6 19,0 18 10 33 18 WSW 1028,8 56 0 0,0
12.09.2019 11:00:00 18,2 13,4 19,3 18,5 16,2 19,0 21 11 32 17 WSW 1028,3 50 2 0,0
12.09.2019 10:00:00 17,0 12,6 17,7 17,2 15,9 19,0 18 10 30 16 SW 1027,7 61 0 0,0
12.09.2019 09:00:00 15,4 12,2 15,5 15,2 15,8 19,0 12 7 22 12 SW 1027,5 47 0 0,0
12.09.2019 08:00:00 14,5 12,2 14,4 14,4 15,8 19,0 13 7 20 11 SW 1027,0 43 0 0,0
12.09.2019 07:00:00 14,2 12,5 14,0 14,1 15,9 19,0 12 6 28 15 SW 1026,4 40 0 0,0
12.09.2019 06:00:00 14,2 11,8 13,9 13,8 16,0 19,1 13 7 24 13 SW 1026,0 42 0 0,0
12.09.2019 05:00:00 14,4 11,6 13,6 13,7 16,1 19,1 12 7 20 11 SW 1025,6 22 0 0,0
12.09.2019 04:00:00 14,2 9,5 13,6 13,5 16,3 19,1 8 5 19 10 SW 1025,3 61 0 0,0
12.09.2019 03:00:00 14,6 9,0 13,7 13,4 16,5 19,1 12 6 19 10 WSW 1024,9 52 0 0,0
12.09.2019 02:00:00 14,3 8,9 13,3 13,2 16,8 19,1 10 5 18 10 SW 1024,4 62 0 0,0
12.09.2019 01:00:00 14,2 8,8 12,9 13,3 17,2 19,1 12 6 18 10 SW 1024,2 55 0 0,0
12.09.2019 00:00:00 14,8 8,7 13,7 13,7 17,6 19,1 10 5 16 8 SW 1024,0 53 0 0,0
11.09.2019 23:00:00 14,7 8,7 13,0 14,1 18,0 19,2 11 6 18 10 SW 1023,8 74 0 0,0
11.09.2019 22:00:00 14,8 9,3 13,1 15,0 18,5 19,2 8 4 12 6 SW 1023,7 55 0 0,0
11.09.2019 21:00:00 14,6 10,5 12,1 16,1 18,9 19,2 7 4 10 5 SW 1023,2 51 0 0,0
11.09.2019 20:00:00 16,9 11,2 13,8 17,5 19,2 19,2 4 2 6 4 SW 1022,6 46 3 0,0
11.09.2019 19:00:00 20,3 8,6 18,3 18,7 19,4 19,2 5 3 19 11 SSW 1022,1 56 47 0,0
11.09.2019 18:00:00 21,9 8,0 22,0 20,6 19,4 19,3 11 6 23 13 WSW 1022,2 63 60 0,0
11.09.2019 17:00:00 21,7 6,4 22,6 22,2 19,1 19,3 13 7 27 15 SW 1022,0 62 60 0,0
11.09.2019 16:00:00 21,7 5,5 22,9 23,7 18,6 19,3 14 7 29 16 SW 1022,3 70 60 0,0
11.09.2019 15:00:00 21,3 6,6 23,8 23,9 17,9 19,3 9 5 24 13 SW 1022,4 69 57 0,0
11.09.2019 14:00:00 20,8 7,2 22,3 23,5 17,0 19,4 12 7 21 11 SW 1022,7 55 54 0,0
11.09.2019 13:00:00 20,8 7,5 22,5 23,1 16,0 19,4 9 5 24 13 SSW 1023,0 48 60 0,0
11.09.2019 12:00:00 19,6 8,8 21,3 21,2 15,1 19,4 8 5 19 10 SSW 1023,3 46 60 0,0
11.09.2019 11:00:00 17,3 9,1 18,5 18,9 14,3 19,4 9 5 14 8 SW 1023,5 41 60 0,0
11.09.2019 10:00:00 15,9 9,2 15,7 15,9 13,7 19,5 8 4 14 8 SW 1023,6 59 60 0,0
11.09.2019 09:00:00 13,0 8,6 11,3 12,6 13,6 19,5 6 4 12 6 SW 1023,5 37 60 0,0
11.09.2019 08:00:00 9,0 7,0 7,9 9,8 13,8 19,5 6 3 9 5 SSW 1023,5 29 35 0,0
11.09.2019 07:00:00 7,7 6,8 6,7 9,3 14,1 19,5 7 4 9 5 S 1023,2 21 0 0,0
11.09.2019 06:00:00 7,3 6,7 6,3 9,6 14,4 19,5 6 3 9 5 S 1022,6 14 0 0,0
11.09.2019 05:00:00 7,1 6,4 6,1 10,0 14,7 19,6 4 2 10 5 SSW 1022,4 13 0 0,0
11.09.2019 04:00:00 8,5 7,6 6,5 10,4 15,0 19,6 4 2 8 4 S 1022,3 20 0 0,0
11.09.2019 03:00:00 8,2 7,5 7,1 10,9 15,3 19,6 3 1 6 3 S 1022,1 26 0 0,0
11.09.2019 02:00:00 9,1 7,8 8,2 11,2 15,7 19,6 2 1 5 3 ESE 1021,7 32 0 0,0
11.09.2019 01:00:00 9,2 7,8 7,4 11,5 16,0 19,6 4 2 7 4 W 1021,3 36 0 0,0
11.09.2019 00:00:00 9,8 8,2 7,9 12,0 16,4 19,7 6 4 9 5 SSW 1021,0 36 0 0,0
10.09.2019 23:00:00 11,3 8,2 8,9 12,7 16,9 19,7 7 4 9 5 SSW 1020,6 52 0 0,0
10.09.2019 22:00:00 11,5 8,7 9,4 13,4 17,3 19,7 7 4 11 6 SSW 1020,5 54 0 0,0
10.09.2019 21:00:00 11,8 9,8 9,9 14,3 17,7 19,7 6 3 8 4 SSW 1020,0 45 0 0,0
10.09.2019 20:00:00 13,8 10,6 11,3 15,5 18,0 19,8 5 3 9 5 SSW 1019,4 48 1 0,0
10.09.2019 19:00:00 17,4 8,7 15,7 16,9 18,1 19,8 6 3 12 6 SW 1018,7 65 39 0,0
10.09.2019 18:00:00 17,4 7,8 16,9 17,9 18,2 19,8 11 6 22 12 W 1018,5 59 9 0,0
10.09.2019 17:00:00 17,9 6,5 17,9 18,8 18,1 19,9 15 8 31 17 WSW 1018,2 54 14 0,0
10.09.2019 16:00:00 18,0 8,2 18,6 20,0 17,9 19,9 19 10 30 16 SW 1017,9 46 17 0,0
10.09.2019 15:00:00 17,7 7,4 18,2 19,8 17,6 19,9 18 10 34 18 SW 1017,6 61 23 0,0
10.09.2019 14:00:00 17,9 6,7 18,9 21,2 17,0 20,0 19 10 36 20 WSW 1017,5 65 41 0,0
10.09.2019 13:00:00 18,1 8,0 20,1 21,3 16,2 20,0 21 11 34 18 WSW 1017,1 50 53 0,0
10.09.2019 12:00:00 16,9 9,7 18,6 19,1 15,5 20,0 18 10 28 15 WSW 1017,2 37 43 0,0
10.09.2019 11:00:00 15,6 10,9 16,8 18,6 14,8 20,1 17 9 27 15 SW 1017,3 38 60 0,0
10.09.2019 10:00:00 14,5 10,7 14,6 15,9 14,4 20,1 17 9 29 15 WSW 1016,8 34 60 0,0
10.09.2019 09:00:00 12,6 10,1 12,2 13,3 14,3 20,1 18 10 29 15 SW 1016,4 25 60 0,0
10.09.2019 08:00:00 11,1 9,5 10,2 11,2 14,4 20,1 19 10 29 16 WSW 1015,8 18 38 0,0
10.09.2019 07:00:00 10,8 9,7 9,8 10,8 14,6 20,2 19 10 27 15 WSW 1015,3 18 0 0,0
10.09.2019 06:00:00 11,0 10,2 10,0 11,1 14,8 20,2 18 10 26 14 WSW 1014,8 11 0 0,0
10.09.2019 05:00:00 11,4 10,7 10,5 11,5 15,0 20,2 16 9 24 13 WSW 1014,1 8 0 0,0
10.09.2019 04:00:00 11,4 10,8 10,5 11,9 15,2 20,2 16 8 26 14 WSW 1013,9 9 0 0,0
10.09.2019 03:00:00 12,1 11,2 11,3 12,6 15,3 20,3 17 9 26 14 WSW 1013,6 12 0 0,0
10.09.2019 02:00:00 12,0 11,5 11,3 12,7 15,4 20,3 12 7 23 12 WSW 1013,6 6 0 0,0
10.09.2019 01:00:00 12,3 11,5 11,8 12,9 15,5 20,3 15 8 32 18 W 1013,4 10 0 0,0
10.09.2019 00:00:00 12,1 11,4 11,4 12,8 15,6 20,3 17 9 28 15 W 1013,0 9 0 0,0
09.09.2019 23:00:00 12,1 11,3 11,5 13,0 15,7 20,3 21 12 34 18 W 1013,0 16 0 0,5
09.09.2019 22:00:00 12,0 11,3 11,7 13,1 15,9 20,4 16 9 31 17 W 1013,2 10 0 0,9
09.09.2019 21:00:00 12,1 11,0 11,5 13,1 16,0 20,4 20 11 38 20 WNW 1012,6 14 0 1,1
09.09.2019 20:00:00 12,2 10,9 11,5 13,1 16,3 20,4 28 15 45 24 WNW 1012,1 10 0 3,7
09.09.2019 19:00:00 12,0 11,1 11,6 13,4 16,5 20,4 29 16 48 26 WNW 1011,2 5 0 1,3
09.09.2019 18:00:00 12,2 11,3 11,9 13,8 16,7 20,4 31 17 57 31 WNW 1010,3 7 0 1,3
09.09.2019 17:00:00 12,4 12,0 12,4 14,2 16,9 20,4 24 13 39 21 WNW 1009,7 6 0 5,3
09.09.2019 16:00:00 13,0 12,7 13,0 14,7 17,1 20,4 18 10 26 14 NW 1009,4 5 0 6,1
09.09.2019 15:00:00 13,3 13,0 13,3 15,1 17,2 20,5 12 6 23 12 NW 1009,2 6 0 3,1
09.09.2019 14:00:00 13,4 13,1 13,6 15,3 17,3 20,5 12 6 24 13 NNW 1009,1 16 0 2,1
09.09.2019 13:00:00 13,0 12,7 13,2 15,0 17,5 20,5 16 9 27 15 NNW 1009,1 3,7 0 5,3
09.09.2019 12:00:00 12,7 12,4 12,8 14,9 17,7 20,5 17 9 27 15 NNW 1009,6 2,7 0 2,5
09.09.2019 11:00:00 12,6 12,1 12,6 14,9 17,8 20,5 17 9 26 14 NNW 1010,1 4,2 0 1,4
09.09.2019 10:00:00 12,4 12,0 12,4 14,8 18,1 20,5 13 7 26 14 N 1010,6 3,4 0 1,4

tt = temperature
td = dewpoint
tt 5cm = temperature 5cm
tt -5cm = temperature -5cm
tt -20cm = temperature -20cm
tt -100cm = temperature -100cm
ff = wind speed
fx = gusts
dd = wind direction
ppp = reduced air pressure
vv = visibility
sd = sunshine duration
rr = precipitation

Next stations